TimeEDT,TemperatureF,Dew PointF,Humidity,Sea Level PressureIn,VisibilityMPH,Wind Direction,Wind SpeedMPH,Gust SpeedMPH,PrecipitationIn,Events,Conditions,WindDirDegrees,DateUTC
12:54 AM,57.0,55.0,93,29.91,4.0,ESE,6.9,-,N/A,,Overcast,120,2013-05-28 04:54:00
1:54 AM,57.9,55.9,93,29.92,5.0,SSE,5.8,-,0.00,,Overcast,160,2013-05-28 05:54:00
2:14 AM,57.2,55.4,94,29.91,4.0,SSE,4.6,-,0.02,Rain,Light Rain,160,2013-05-28 06:14:00
2:50 AM,59.0,57.2,94,29.89,2.5,South,13.8,-,0.07,Rain,Heavy Rain,180,2013-05-28 06:50:00
2:54 AM,59.0,57.9,96,29.89,2.5,South,11.5,-,0.08,Rain,Heavy Rain,180,2013-05-28 06:54:00
3:10 AM,60.8,59.0,94,29.89,3.0,South,6.9,-,0.06,Rain,Rain,180,2013-05-28 07:10:00
3:54 AM,61.0,60.1,97,29.90,4.0,South,4.6,-,0.12,Rain,Light Rain,190,2013-05-28 07:54:00
4:08 AM,62.6,60.8,94,29.94,4.0,WSW,9.2,-,0.00,Thunderstorm,Overcast,250,2013-05-28 08:08:00
4:20 AM,62.6,60.8,94,29.89,2.5,SSE,5.8,-,0.09,Rain-Thunderstorm,Light Thunderstorms and Rain,150,2013-05-28 08:20:00
4:30 AM,62.6,60.8,94,29.89,4.0,SE,6.9,-,0.13,Rain-Thunderstorm,Light Rain,130,2013-05-28 08:30:00
4:36 AM,62.6,60.8,94,29.89,6.0,SSE,6.9,-,0.13,Rain,Light Rain,150,2013-05-28 08:36:00
4:54 AM,63.0,61.0,93,29.88,6.0,SE,5.8,-,0.16,Rain-Thunderstorm,Light Rain,130,2013-05-28 08:54:00
5:13 AM,62.6,60.8,94,29.88,9.0,SE,6.9,-,0.00,,Overcast,130,2013-05-28 09:13:00
5:54 AM,64.0,61.0,90,29.87,10.0,SSE,8.1,-,0.00,,Overcast,160,2013-05-28 09:54:00
6:54 AM,64.9,62.1,90,29.87,10.0,South,10.4,-,N/A,,Overcast,180,2013-05-28 10:54:00
7:54 AM,64.9,62.1,90,29.88,10.0,South,9.2,-,N/A,,Overcast,190,2013-05-28 11:54:00
8:54 AM,68.0,62.1,81,29.86,10.0,SSW,13.8,-,N/A,,Overcast,200,2013-05-28 12:54:00
9:54 AM,69.1,62.1,78,29.86,10.0,SSW,15.0,20.7,N/A,,Overcast,200,2013-05-28 13:54:00
10:54 AM,70.0,63.0,78,29.86,10.0,SSW,13.8,20.7,N/A,,Scattered Clouds,200,2013-05-28 14:54:00
11:41 AM,71.6,64.4,78,29.85,10.0,SSW,20.7,28.8,N/A,Thunderstorm,Mostly Cloudy,210,2013-05-28 15:41:00
11:54 AM,72.0,64.0,76,29.83,10.0,SSW,16.1,24.2,0.00,Rain-Thunderstorm,Light Rain,200,2013-05-28 15:54:00
12:07 PM,71.6,64.4,78,29.83,10.0,South,13.8,24.2,0.00,Rain,Light Rain,180,2013-05-28 16:07:00
12:54 PM,73.9,64.9,73,29.83,10.0,SSW,19.6,25.3,0.00,,Scattered Clouds,210,2013-05-28 16:54:00
1:06 PM,73.4,64.4,73,29.84,10.0,SSW,15.0,24.2,N/A,,Mostly Cloudy,210,2013-05-28 17:06:00
1:54 PM,73.0,64.9,76,29.86,10.0,WSW,9.2,-,N/A,,Overcast,240,2013-05-28 17:54:00
2:54 PM,75.0,66.0,73,29.83,10.0,SW,13.8,23.0,0.00,Rain,Light Rain,230,2013-05-28 18:54:00
3:28 PM,75.2,68.0,78,29.85,10.0,SSW,9.2,-,0.00,,Overcast,210,2013-05-28 19:28:00
3:54 PM,75.9,68.0,76,29.84,10.0,SSW,9.2,-,0.00,,Overcast,210,2013-05-28 19:54:00
4:54 PM,78.1,66.9,68,29.82,10.0,SW,17.3,25.3,N/A,,Mostly Cloudy,220,2013-05-28 20:54:00
5:54 PM,79.0,64.9,62,29.82,10.0,SSW,19.6,31.1,N/A,,Mostly Cloudy,210,2013-05-28 21:54:00
6:54 PM,77.0,66.0,69,29.82,10.0,SSW,15.0,-,N/A,,Overcast,210,2013-05-28 22:54:00
7:54 PM,75.9,66.0,71,29.81,10.0,SSW,11.5,20.7,N/A,,Overcast,210,2013-05-28 23:54:00
8:54 PM,75.9,66.0,71,29.81,10.0,SW,10.4,-,N/A,,Overcast,220,2013-05-29 00:54:00
9:54 PM,73.9,68.0,82,29.80,10.0,South,6.9,-,0.00,Rain-Thunderstorm,Light Rain,190,2013-05-29 01:54:00
10:15 PM,73.4,68.0,83,29.82,10.0,SSW,9.2,-,0.01,Rain,Light Rain,200,2013-05-29 02:15:00
10:54 PM,75.0,66.0,73,29.80,10.0,SSW,15.0,20.7,0.01,,Mostly Cloudy,200,2013-05-29 02:54:00
11:02 PM,75.2,66.2,73,29.81,10.0,SSW,15.0,24.2,N/A,Thunderstorm,Thunderstorm,200,2013-05-29 03:02:00
11:15 PM,66.2,62.6,88,29.90,4.0,West,26.5,59.8,0.03,Rain-Thunderstorm,Light Thunderstorms and Rain,270,2013-05-29 03:15:00
11:18 PM,66.2,62.6,88,29.92,2.0,West,29.9,59.8,0.04,Rain-Thunderstorm,Light Thunderstorms and Rain,260,2013-05-29 03:18:00
11:23 PM,64.4,62.6,94,29.91,4.0,WSW,19.6,38.0,0.09,Rain-Thunderstorm,Thunderstorms and Rain,250,2013-05-29 03:23:00
11:41 PM,64.4,60.8,88,29.88,5.0,West,5.8,-,0.19,Rain-Thunderstorm,Light Thunderstorms and Rain,260,2013-05-29 03:41:00
11:54 PM,64.0,61.0,90,29.86,10.0,SSW,6.9,-,0.20,Rain-Thunderstorm,Light Thunderstorms and Rain,210,2013-05-29 03:54:00